TimeCST,TemperatureF,Dew PointF,Humidity,Sea Level PressureIn,VisibilityMPH,Wind Direction,Wind SpeedMPH,Gust SpeedMPH,PrecipitationIn,Events,Conditions,WindDirDegrees,DateUTC
12:15 AM,3.7,0.5,86,30.16,10.0,Calm,Calm,-,N/A,,Clear,0,2013-01-27 06:15:00
12:35 AM,4.1,1.2,88,30.16,10.0,Calm,Calm,-,N/A,,Clear,0,2013-01-27 06:35:00
12:55 AM,4.5,1.6,88,30.16,10.0,Calm,Calm,-,N/A,,Clear,0,2013-01-27 06:55:00
1:15 AM,3.6,0.9,89,30.16,10.0,Calm,Calm,-,N/A,,Clear,0,2013-01-27 07:15:00
1:35 AM,2.8,0.5,90,30.15,10.0,Calm,Calm,-,N/A,,Clear,0,2013-01-27 07:35:00
1:55 AM,3.2,0.9,90,30.15,10.0,Calm,Calm,-,N/A,,Clear,0,2013-01-27 07:55:00
2:15 AM,3.0,-0.0,87,30.15,10.0,Calm,Calm,-,N/A,,Clear,0,2013-01-27 08:15:00
2:35 AM,2.8,-0.2,87,30.14,10.0,NNE,3.5,-,N/A,,Clear,20,2013-01-27 08:35:00
2:55 AM,2.7,-1.3,84,30.14,10.0,Calm,Calm,-,N/A,,Clear,0,2013-01-27 08:55:00
3:15 AM,2.7,-1.3,84,30.13,10.0,NE,3.5,-,N/A,,Clear,50,2013-01-27 09:15:00
3:35 AM,3.7,0.1,85,30.12,10.0,Calm,Calm,-,N/A,,Clear,0,2013-01-27 09:35:00
3:55 AM,4.5,1.0,86,30.11,10.0,Calm,Calm,-,N/A,,Mostly Cloudy,0,2013-01-27 09:55:00
4:15 AM,5.9,2.7,87,30.10,10.0,Calm,Calm,-,N/A,,Mostly Cloudy,0,2013-01-27 10:15:00
4:35 AM,5.7,2.3,86,30.10,10.0,Calm,Calm,-,N/A,,Clear,0,2013-01-27 10:35:00
4:55 AM,5.0,1.9,87,30.09,10.0,Calm,Calm,-,N/A,,Clear,0,2013-01-27 10:55:00
5:15 AM,5.0,1.6,86,30.08,10.0,Calm,Calm,-,N/A,,Clear,0,2013-01-27 11:15:00
5:35 AM,4.3,1.0,86,30.08,10.0,Calm,Calm,-,N/A,,Scattered Clouds,0,2013-01-27 11:35:00
6:15 AM,3.6,0.9,89,30.07,10.0,Calm,Calm,-,N/A,,Clear,0,2013-01-27 12:15:00
6:35 AM,3.0,-0.2,86,30.07,10.0,Calm,Calm,-,N/A,,Clear,0,2013-01-27 12:35:00
6:55 AM,1.4,-2.2,85,30.07,10.0,NE,3.5,-,N/A,,Clear,50,2013-01-27 12:55:00
7:15 AM,2.1,-1.7,84,30.08,10.0,Calm,Calm,-,N/A,,Clear,0,2013-01-27 13:15:00
7:35 AM,3.0,-0.9,84,30.08,10.0,East,3.5,-,N/A,,Clear,100,2013-01-27 13:35:00
7:55 AM,2.3,-1.5,84,30.08,10.0,East,3.5,-,N/A,,Clear,100,2013-01-27 13:55:00
8:15 AM,4.6,0.9,84,30.07,10.0,East,5.8,-,N/A,,Clear,90,2013-01-27 14:15:00
8:35 AM,13.5,9.3,84,30.07,10.0,East,4.6,-,N/A,,Clear,90,2013-01-27 14:35:00
8:55 AM,19.2,12.4,75,30.07,10.0,East,5.8,-,N/A,,Clear,90,2013-01-27 14:55:00
9:15 AM,21.4,13.6,72,30.07,10.0,East,5.8,-,N/A,,Clear,90,2013-01-27 15:15:00
9:35 AM,23.7,14.0,66,30.07,10.0,East,5.8,-,N/A,,Clear,90,2013-01-27 15:35:00
9:55 AM,24.3,14.2,65,30.06,10.0,East,5.8,-,N/A,,Clear,90,2013-01-27 15:55:00
10:15 AM,24.8,14.2,64,30.06,10.0,East,5.8,-,N/A,,Clear,80,2013-01-27 16:15:00
10:35 AM,25.7,14.0,61,30.05,10.0,East,6.9,-,N/A,,Clear,100,2013-01-27 16:35:00
10:55 AM,25.7,15.1,64,30.05,10.0,East,6.9,-,N/A,,Clear,90,2013-01-27 16:55:00
11:15 AM,26.6,15.6,63,30.04,10.0,East,6.9,-,N/A,,Clear,90,2013-01-27 17:15:00
11:35 AM,26.6,15.8,64,30.03,10.0,East,8.1,-,N/A,,Clear,90,2013-01-27 17:35:00
11:55 AM,27.5,16.7,64,30.02,10.0,East,8.1,-,N/A,,Mostly Cloudy,90,2013-01-27 17:55:00
12:15 PM,28.0,17.4,64,30.01,10.0,East,8.1,-,N/A,,Overcast,90,2013-01-27 18:15:00
12:35 PM,27.9,18.1,67,30.01,10.0,East,9.2,-,N/A,,Overcast,90,2013-01-27 18:35:00
12:55 PM,28.2,18.5,67,30.00,10.0,East,11.5,-,N/A,,Overcast,90,2013-01-27 18:55:00
1:15 PM,28.4,19.9,71,29.99,10.0,East,5.8,-,N/A,,Mostly Cloudy,80,2013-01-27 19:15:00
1:35 PM,28.4,19.9,71,29.99,10.0,East,9.2,-,N/A,,Overcast,90,2013-01-27 19:35:00
1:55 PM,28.4,19.4,69,29.98,10.0,ENE,8.1,-,N/A,,Overcast,70,2013-01-27 19:55:00
2:15 PM,28.8,20.1,70,29.97,10.0,ENE,6.9,-,N/A,,Overcast,70,2013-01-27 20:15:00
2:35 PM,28.9,20.3,70,29.97,10.0,ENE,8.1,-,N/A,,Overcast,60,2013-01-27 20:35:00
2:55 PM,29.1,20.3,70,29.96,10.0,ENE,8.1,-,N/A,,Overcast,60,2013-01-27 20:55:00
3:15 PM,29.3,21.4,72,29.96,10.0,ENE,10.4,-,N/A,,Overcast,60,2013-01-27 21:15:00
3:35 PM,29.3,21.4,72,29.95,10.0,ENE,10.4,-,N/A,,Overcast,60,2013-01-27 21:35:00
3:55 PM,29.7,21.9,73,29.94,10.0,ENE,11.5,16.1,N/A,,Overcast,60,2013-01-27 21:55:00
4:15 PM,29.8,22.3,73,29.93,10.0,ENE,9.2,-,N/A,,Overcast,70,2013-01-27 22:15:00
4:35 PM,30.0,23.0,75,29.93,10.0,ENE,11.5,16.1,N/A,,Overcast,70,2013-01-27 22:35:00
4:55 PM,30.2,23.5,76,29.92,10.0,ENE,6.9,-,N/A,,Overcast,70,2013-01-27 22:55:00
5:15 PM,30.2,24.1,78,29.91,10.0,East,10.4,-,N/A,,Overcast,80,2013-01-27 23:15:00
5:35 PM,30.7,24.4,77,29.92,10.0,East,10.4,-,N/A,,Overcast,90,2013-01-27 23:35:00
5:55 PM,30.9,24.8,78,29.92,10.0,East,8.1,16.1,N/A,,Overcast,80,2013-01-27 23:55:00
6:15 PM,30.9,25.0,79,29.91,10.0,East,8.1,-,N/A,,Overcast,80,2013-01-28 00:15:00
6:35 PM,30.9,25.5,80,29.91,10.0,East,5.8,-,N/A,,Overcast,90,2013-01-28 00:35:00
6:55 PM,30.7,26.2,83,29.91,5.0,East,6.9,-,N/A,,Haze,80,2013-01-28 00:55:00
7:15 PM,30.4,26.6,86,29.90,4.0,East,4.6,-,N/A,Snow,Light Snow,80,2013-01-28 01:15:00
7:35 PM,30.0,27.3,90,29.90,4.0,East,5.8,-,N/A,Snow,Light Snow,80,2013-01-28 01:35:00
7:55 PM,29.8,28.0,93,29.90,3.0,East,8.1,-,N/A,Snow,Light Snow,90,2013-01-28 01:55:00
8:15 PM,29.7,28.2,94,29.89,1.8,East,6.9,-,N/A,Snow,Light Snow,90,2013-01-28 02:15:00
8:35 PM,29.5,28.4,96,29.88,1.5,East,6.9,-,N/A,Snow,Light Snow,90,2013-01-28 02:35:00
8:55 PM,29.3,28.4,96,29.87,2.0,East,8.1,-,N/A,Snow,Light Snow,90,2013-01-28 02:55:00
9:15 PM,29.3,28.4,96,29.87,2.5,East,8.1,-,N/A,Snow,Light Snow,90,2013-01-28 03:15:00
9:35 PM,29.3,28.4,96,29.86,3.0,East,6.9,-,N/A,Snow,Light Snow,90,2013-01-28 03:35:00
9:55 PM,29.3,28.6,97,29.86,2.5,East,5.8,-,N/A,Snow,Light Snow,90,2013-01-28 03:55:00
10:15 PM,29.5,28.9,98,29.85,2.5,East,6.9,-,N/A,Snow,Light Snow,80,2013-01-28 04:15:00
10:35 PM,29.7,28.9,97,29.85,3.0,East,6.9,-,N/A,Snow,Light Snow,90,2013-01-28 04:35:00
10:55 PM,29.8,29.1,97,29.85,4.0,East,5.8,-,N/A,Snow,Light Snow,90,2013-01-28 04:55:00
11:15 PM,29.8,29.3,98,29.85,3.0,East,4.6,-,N/A,Snow,Light Snow,90,2013-01-28 05:15:00
11:35 PM,29.8,29.1,97,29.85,2.0,East,5.8,-,N/A,Snow,Light Snow,90,2013-01-28 05:35:00
11:55 PM,29.8,29.1,97,29.85,2.5,East,4.6,-,N/A,Snow,Light Snow,90,2013-01-28 05:55:00